SB KEPS @ AMSAT $ORB06306.O Orbital Elements 06306.OSCAR
HR AMSAT ORBITAL ELEMENTS FOR OSCAR SATELLITES FROM WA5QGD FORT WORTH,TX November 2, 2006 Send SUBSCRIBE KEPS/UNSUBSCRIBE KEPS to [email protected] only BID: ORB06306.O TO ALL RADIO AMATEURS BT
Satellite: AO-07 Catalog number: 07530 Epoch time: 06305.69309138 Element set: 0719 Inclination: 101.5514 deg RA of node: 345.1035 deg Eccentricity: 0.0012029 Arg of perigee: 339.4563 deg Mean anomaly: 020.6021 deg Mean motion: 12.53571636 rev/day Decay rate: -2.8e-07 rev/day^2 Epoch rev: 46261 Checksum: 268
Satellite: UO-11 Catalog number: 14781 Epoch time: 06305.75027033 Element set: 214 Inclination: 098.2060 deg RA of node: 318.8855 deg Eccentricity: 0.0009198 Arg of perigee: 176.8696 deg Mean anomaly: 183.2565 deg Mean motion: 14.79477528 rev/day Decay rate: 4.17e-06 rev/day^2 Epoch rev: 21610 Checksum: 320
Satellite: RS-10/11 Catalog number: 18129 Epoch time: 06305.86653501 Element set: 0140 Inclination: 082.9235 deg RA of node: 226.2987 deg Eccentricity: 0.0013477 Arg of perigee: 070.1318 deg Mean anomaly: 290.1286 deg Mean motion: 13.72780011 rev/day Decay rate: 5.1e-07 rev/day^2 Epoch rev: 97004 Checksum: 279
Satellite: RS-15 Catalog number: 23439 Epoch time: 06305.66563476 Element set: 0045 Inclination: 064.8205 deg RA of node: 014.8762 deg Eccentricity: 0.0166230 Arg of perigee: 230.2937 deg Mean anomaly: 128.3249 deg Mean motion: 11.27551660 rev/day Decay rate: -3.9e-07 rev/day^2 Epoch rev: 48804 Checksum: 301
Satellite: FO-29 Catalog number: 24278 Epoch time: 06306.90656677 Element set: 354 Inclination: 098.5200 deg RA of node: 292.3033 deg Eccentricity: 0.0350282 Arg of perigee: 310.0443 deg Mean anomaly: 047.0449 deg Mean motion: 13.52925688 rev/day Decay rate: 9.9e-07 rev/day^2 Epoch rev: 50430 Checksum: 306
Satellite: SO-33 Catalog number: 25509 Epoch time: 06306.78247988 Element set: 782 Inclination: 031.4330 deg RA of node: 065.7648 deg Eccentricity: 0.0355362 Arg of perigee: 248.1191 deg Mean anomaly: 108.1293 deg Mean motion: 14.28131197 rev/day Decay rate: 2.94e-06 rev/day^2 Epoch rev: 41886 Checksum: 325
Satellite: VO-52 Catalog number: 28650 Epoch time: 06305.80003028 Element set: 0469 Inclination: 097.8591 deg RA of node: 016.2979 deg Eccentricity: 0.0026187 Arg of perigee: 273.8574 deg Mean anomaly: 085.9607 deg Mean motion: 14.81196278 rev/day Decay rate: 1.36e-06 rev/day^2 Epoch rev: 08075 Checksum: 337
/EX SB KEPS @ AMSAT $ORB06306.D Orbital Elements 06306.MICROS
HR AMSAT ORBITAL ELEMENTS FOR THE MICROSATS FROM WA5QGD FORT WORTH,TX November 2, 2006 Send SUBSCRIBE KEPS/UNSUBSCRIBE KEPS to [email protected] only BID: ORB06306.D TO ALL RADIO AMATEURS BT
Satellite: AO-16 Catalog number: 20439 Epoch time: 06306.66340080 Element set: 884 Inclination: 098.1898 deg RA of node: 308.8387 deg Eccentricity: 0.0011468 Arg of perigee: 137.9015 deg Mean anomaly: 222.3057 deg Mean motion: 14.31737746 rev/day Decay rate: 9.0e-08 rev/day^2 Epoch rev: 87613 Checksum: 323
Satellite: LO-19 Catalog number: 20442 Epoch time: 06305.55210676 Element set: 0818 Inclination: 098.1864 deg RA of node: 317.3102 deg Eccentricity: 0.0012472 Arg of perigee: 141.1156 deg Mean anomaly: 219.0921 deg Mean motion: 14.31979910 rev/day Decay rate: 3.7e-07 rev/day^2 Epoch rev: 87611 Checksum: 285
Satellite: AO-27 Catalog number: 22825 Epoch time: 06305.45734868 Element set: 0535 Inclination: 098.3019 deg RA of node: 280.6650 deg Eccentricity: 0.0007733 Arg of perigee: 212.1180 deg Mean anomaly: 147.9526 deg Mean motion: 14.29188436 rev/day Decay rate: 1.36e-06 rev/day^2 Epoch rev: 68296 Checksum: 323
Satellite: IO-26 Catalog number: 22826 Epoch time: 06305.47373876 Element set: 0227 Inclination: 098.2953 deg RA of node: 281.8425 deg Eccentricity: 0.0008231 Arg of perigee: 209.7097 deg Mean anomaly: 150.3617 deg Mean motion: 14.29432420 rev/day Decay rate: 1.4e-07 rev/day^2 Epoch rev: 68304 Checksum: 303
Satellite: PO-28 Catalog number: 22829 Epoch time: 06306.52034583 Element set: 511 Inclination: 098.2850 deg RA of node: 284.0341 deg Eccentricity: 0.0009776 Arg of perigee: 179.3901 deg Mean anomaly: 180.7294 deg Mean motion: 14.30129479 rev/day Decay rate: 1.00e-06 rev/day^2 Epoch rev: 68341 Checksum: 302
Satellite: GO-32 Catalog number: 25397 Epoch time: 06305.71323239 Element set: 0149 Inclination: 098.4514 deg RA of node: 357.4719 deg Eccentricity: 0.0001587 Arg of perigee: 142.8917 deg Mean anomaly: 217.2373 deg Mean motion: 14.23112693 rev/day Decay rate: -1.11e-06 rev/day^2 Epoch rev: 43180 Checksum: 296
Satellite: MO-46 Catalog number: 26548 Epoch time: 06306.75428186 Element set: 636 Inclination: 064.5571 deg RA of node: 163.1315 deg Eccentricity: 0.0039714 Arg of perigee: 227.4952 deg Mean anomaly: 132.2771 deg Mean motion: 14.83039392 rev/day Decay rate: -4.5e-07 rev/day^2 Epoch rev: 32995 Checksum: 323
Satellite: NO-44 Catalog number: 26931 Epoch time: 06305.69667251 Element set: 438 Inclination: 067.0548 deg RA of node: 013.4821 deg Eccentricity: 0.0004828 Arg of perigee: 258.4929 deg Mean anomaly: 101.5622 deg Mean motion: 14.29459087 rev/day Decay rate: 1.88e-06 rev/day^2 Epoch rev: 26558 Checksum: 329
Satellite: SO-50 Catalog number: 27607 Epoch time: 06305.75056825 Element set: 0161 Inclination: 064.5583 deg RA of node: 055.5048 deg Eccentricity: 0.0034930 Arg of perigee: 087.9576 deg Mean anomaly: 272.5528 deg Mean motion: 14.71187804 rev/day Decay rate: 5.5e-07 rev/day^2 Epoch rev: 20766 Checksum: 320
Satellite: CO-55 Catalog number: 27844 Epoch time: 06305.51989008 Element set: 0885 Inclination: 098.7221 deg RA of node: 311.9323 deg Eccentricity: 0.0010476 Arg of perigee: 031.6569 deg Mean anomaly: 328.5233 deg Mean motion: 14.20466251 rev/day Decay rate: 4.3e-07 rev/day^2 Epoch rev: 17315 Checksum: 301
Satellite: CO-57 Catalog number: 27848 Epoch time: 06305.51189711 Element set: 0850 Inclination: 098.7205 deg RA of node: 311.2094 deg Eccentricity: 0.0010436 Arg of perigee: 034.1729 deg Mean anomaly: 326.0121 deg Mean motion: 14.20291628 rev/day Decay rate: 2.1e-07 rev/day^2 Epoch rev: 17313 Checksum: 271
Satellite: AO-51 Catalog number: 28375 Epoch time: 06306.71785453 Element set: 666 Inclination: 098.1468 deg RA of node: 352.3161 deg Eccentricity: 0.0084000 Arg of perigee: 147.7766 deg Mean anomaly: 212.8601 deg Mean motion: 14.40539374 rev/day Decay rate: 2.7e-07 rev/day^2 Epoch rev: 12310 Checksum: 298
Satellite: CO-56 Catalog number: 28941 Epoch time: 06305.63081379 Element set: 0246 Inclination: 098.1636 deg RA of node: 337.6985 deg Eccentricity: 0.0262156 Arg of perigee: 353.2239 deg Mean anomaly: 006.5409 deg Mean motion: 15.29863719 rev/day Decay rate: 2.9557e-04 rev/day^2 Epoch rev: 03852 Checksum: 350
/EX SB KEPS @ AMSAT $ORB06306.W Orbital Elements 06306.WEATHER
HR AMSAT ORBITAL ELEMENTS FOR WEATHER SATELLITES FROM WA5QGD FORT WORTH,TX November 2, 2006 Send SUBSCRIBE KEPS/UNSUBSCRIBE KEPS to [email protected] only BID: ORB06306.W TO ALL RADIO AMATEURS BT
Satellite: NOAA-10 Catalog number: 16969 Epoch time: 06305.61444488 Element set: 0407 Inclination: 098.7589 deg RA of node: 317.5355 deg Eccentricity: 0.0013131 Arg of perigee: 108.9484 deg Mean anomaly: 251.3103 deg Mean motion: 14.27307331 rev/day Decay rate: 2.1e-07 rev/day^2 Epoch rev: 04676 Checksum: 297
Satellite: NOAA-11 Catalog number: 19531 Epoch time: 06305.76964780 Element set: 0359 Inclination: 098.8227 deg RA of node: 032.6714 deg Eccentricity: 0.0011251 Arg of perigee: 321.1529 deg Mean anomaly: 038.8829 deg Mean motion: 14.14823035 rev/day Decay rate: -9.6e-07 rev/day^2 Epoch rev: 93399 Checksum: 320
Satellite: NOAA-12 Catalog number: 21263 Epoch time: 06305.81925645 Element set: 0853 Inclination: 098.7433 deg RA of node: 298.5991 deg Eccentricity: 0.0013476 Arg of perigee: 049.8140 deg Mean anomaly: 310.4224 deg Mean motion: 14.25512001 rev/day Decay rate: -2.0e-07 rev/day^2 Epoch rev: 80385 Checksum: 286
Satellite: MET-3/5 Catalog number: 21655 Epoch time: 06305.94722666 Element set: 0262 Inclination: 082.5568 deg RA of node: 163.4883 deg Eccentricity: 0.0014334 Arg of perigee: 056.5592 deg Mean anomaly: 303.6900 deg Mean motion: 13.17008391 rev/day Decay rate: 5.1e-07 rev/day^2 Epoch rev: 73149 Checksum: 302
Satellite: MET-2/21 Catalog number: 22782 Epoch time: 06306.80567147 Element set: 658 Inclination: 082.5492 deg RA of node: 221.4771 deg Eccentricity: 0.0022894 Arg of perigee: 147.6328 deg Mean anomaly: 212.6254 deg Mean motion: 13.83609589 rev/day Decay rate: -1.9e-07 rev/day^2 Epoch rev: 66521 Checksum: 324
Satellite: OKEAN-4 Catalog number: 23317 Epoch time: 06305.71632859 Element set: 0094 Inclination: 082.5379 deg RA of node: 148.7431 deg Eccentricity: 0.0020774 Arg of perigee: 283.8436 deg Mean anomaly: 076.0415 deg Mean motion: 14.82415265 rev/day Decay rate: 1.37e-06 rev/day^2 Epoch rev: 65035 Checksum: 305
Satellite: NOAA-14 Catalog number: 23455 Epoch time: 06305.96041482 Element set: 0353 Inclination: 099.0230 deg RA of node: 005.5919 deg Eccentricity: 0.0009584 Arg of perigee: 026.7656 deg Mean anomaly: 333.4004 deg Mean motion: 14.13673400 rev/day Decay rate: -5.4e-07 rev/day^2 Epoch rev: 61053 Checksum: 275
Satellite: SICH-1 Catalog number: 23657 Epoch time: 06305.66878549 Element set: 0896 Inclination: 082.5251 deg RA of node: 289.6755 deg Eccentricity: 0.0022239 Arg of perigee: 272.0085 deg Mean anomaly: 087.8587 deg Mean motion: 14.81405675 rev/day Decay rate: 2.38e-06 rev/day^2 Epoch rev: 60234 Checksum: 343
Satellite: NOAA-15 Catalog number: 25338 Epoch time: 06305.82514961 Element set: 0727 Inclination: 098.5239 deg RA of node: 304.0549 deg Eccentricity: 0.0010397 Arg of perigee: 337.4415 deg Mean anomaly: 022.6316 deg Mean motion: 14.24608689 rev/day Decay rate: 6.8e-07 rev/day^2 Epoch rev: 44031 Checksum: 306
